EN

Hourly Weather Bartosy

Today, 23 July, Friday

Time Temperature Precipitation Wind Pressure Humidity
00:00 +19°C° 0 mm 1 mps 752 mmHg 74%
01:00 +19°C° 0 mm 1 mps 752 mmHg 75%
02:00 +19°C° 0 mm 1 mps 752 mmHg 75%
03:00 +19°C° 0 mm 1 mps 752 mmHg 75%
04:00 +19°C° 0 mm 1 mps 752 mmHg 74%
05:00 +19°C° 0 mm 1 mps 752 mmHg 74%
06:00 +19°C° 0 mm 1 mps 752 mmHg 74%
07:00 +20°C° 0 mm 1 mps 752 mmHg 75%
08:00 +20°C° 0.1 mm 2 mps 752 mmHg 71%
09:00 +21°C° 0.1 mm 2 mps 752 mmHg 67%
10:00 +23°C° 0.1 mm 2 mps 752 mmHg 63%
11:00 +24°C° 0.1 mm 2 mps 751 mmHg 59%
12:00 +25°C° 0.1 mm 2 mps 751 mmHg 56%
13:00 +25°C° 0 mm 2 mps 751 mmHg 55%
14:00 +25°C° 0.1 mm 2 mps 751 mmHg 55%
15:00 +25°C° 0.1 mm 2 mps 751 mmHg 56%
16:00 +25°C° 0.1 mm 2 mps 750 mmHg 56%
17:00 +24°C° 0 mm 2 mps 750 mmHg 59%
18:00 +23°C° 0 mm 1 mps 750 mmHg 63%
19:00 +22°C° 0 mm 1 mps 750 mmHg 66%
20:00 +21°C° 0 mm 1 mps 751 mmHg 69%
21:00 +20°C° 0 mm 1 mps 751 mmHg 73%
22:00 +19°C° 0 mm 1 mps 751 mmHg 76%
23:00 +18°C° 0 mm 1 mps 751 mmHg 78%

Tomorrow, 24 July, Saturday

Time Temperature Precipitation Wind Pressure Humidity
00:00 +18°C° 0 mm 1 mps 751 mmHg 80%
01:00 +16°C° 0 mm 1 mps 751 mmHg 82%
02:00 +16°C° 0 mm 1 mps 751 mmHg 84%
03:00 +15°C° 0 mm 1 mps 751 mmHg 85%
04:00 +15°C° 0 mm 1 mps 751 mmHg 87%
05:00 +18°C° 0 mm 1 mps 751 mmHg 80%
06:00 +19°C° 0 mm 1 mps 751 mmHg 74%
07:00 +21°C° 0 mm 1 mps 751 mmHg 68%
08:00 +23°C° 0 mm 1 mps 751 mmHg 62%
09:00 +24°C° 0 mm 1 mps 751 mmHg 56%
10:00 +26°C° 0 mm 1 mps 751 mmHg 51%
11:00 +26°C° 0 mm 1 mps 751 mmHg 48%
12:00 +27°C° 0 mm 1 mps 751 mmHg 45%
13:00 +27°C° 0 mm 1 mps 751 mmHg 43%
14:00 +27°C° 0 mm 2 mps 751 mmHg 47%
15:00 +26°C° 0 mm 2 mps 751 mmHg 51%
16:00 +25°C° 0 mm 2 mps 751 mmHg 55%
17:00 +25°C° 0 mm 2 mps 751 mmHg 58%
18:00 +24°C° 0 mm 1 mps 751 mmHg 61%
19:00 +23°C° 0 mm 1 mps 751 mmHg 63%
20:00 +23°C° 0 mm 1 mps 751 mmHg 63%
21:00 +21°C° 0 mm 2 mps 751 mmHg 63%
22:00 +21°C° 0 mm 2 mps 751 mmHg 63%
23:00 +21°C° 0 mm 2 mps 751 mmHg 63%

Day after tomorrow, 25 July, Sunday

Time Temperature Precipitation Wind Pressure Humidity
00:00 +21°C° 0 mm 2 mps 751 mmHg 63%
01:00 +20°C° 0 mm 2 mps 751 mmHg 63%
02:00 +20°C° 0 mm 2 mps 751 mmHg 63%
03:00 +20°C° 0 mm 2 mps 751 mmHg 63%
04:00 +20°C° 0 mm 2 mps 751 mmHg 63%
05:00 +20°C° 0 mm 2 mps 751 mmHg 63%
06:00 +21°C° 0 mm 2 mps 751 mmHg 62%
07:00 +22°C° 0 mm 3 mps 751 mmHg 62%
08:00 +25°C° 0 mm 3 mps 751 mmHg 57%
09:00 +26°C° 0 mm 3 mps 751 mmHg 52%
10:00 +27°C° 0 mm 4 mps 751 mmHg 48%
11:00 +28°C° 0 mm 4 mps 751 mmHg 44%
12:00 +29°C° 0 mm 4 mps 751 mmHg 41%
13:00 +30°C° 0 mm 5 mps 751 mmHg 38%
14:00 +29°C° 0 mm 5 mps 751 mmHg 40%
15:00 +29°C° 0 mm 5 mps 751 mmHg 43%
16:00 +29°C° 0 mm 5 mps 750 mmHg 45%
17:00 +27°C° 0 mm 4 mps 750 mmHg 49%
18:00 +26°C° 0 mm 4 mps 750 mmHg 53%
19:00 +25°C° 0 mm 4 mps 750 mmHg 58%
20:00 +23°C° 0.1 mm 4 mps 751 mmHg 61%
21:00 +22°C° 0.1 mm 4 mps 751 mmHg 64%
22:00 +21°C° 0.1 mm 4 mps 751 mmHg 67%
23:00 +21°C° 0 mm 4 mps 751 mmHg 69%

26 July, Monday

Time Temperature Precipitation Wind Pressure Humidity
00:00 +20°C° 0 mm 4 mps 751 mmHg 71%
01:00 +19°C° 0 mm 3 mps 751 mmHg 74%
02:00 +19°C° 0 mm 3 mps 751 mmHg 73%
03:00 +20°C° 0 mm 4 mps 751 mmHg 72%
04:00 +20°C° 0 mm 4 mps 750 mmHg 71%
05:00 +20°C° 0 mm 4 mps 750 mmHg 69%
06:00 +21°C° 0 mm 5 mps 750 mmHg 68%
07:00 +21°C° 0 mm 5 mps 750 mmHg 66%
08:00 +23°C° 0 mm 6 mps 750 mmHg 61%
09:00 +26°C° 0 mm 7 mps 750 mmHg 55%
10:00 +28°C° 0 mm 8 mps 750 mmHg 49%
11:00 +29°C° 0 mm 8 mps 750 mmHg 46%
12:00 +31°C° 0 mm 8 mps 749 mmHg 43%
13:00 +32°C° 0 mm 7 mps 749 mmHg 40%
14:00 +32°C° 0 mm 7 mps 749 mmHg 41%
15:00 +32°C° 0 mm 6 mps 749 mmHg 43%
16:00 +32°C° 0 mm 6 mps 749 mmHg 45%
17:00 +29°C° 0.2 mm 6 mps 748 mmHg 53%
18:00 +28°C° 0.2 mm 5 mps 748 mmHg 61%
19:00 +26°C° 0.2 mm 5 mps 748 mmHg 68%
20:00 +23°C° 1 mm 5 mps 748 mmHg 76%
21:00 +22°C° 1 mm 4 mps 748 mmHg 84%
22:00 +21°C° 1 mm 4 mps 749 mmHg 92%
23:00 +20°C° 0.3 mm 4 mps 748 mmHg 93%

27 July, Tuesday

Time Temperature Precipitation Wind Pressure Humidity
00:00 +20°C° 0.3 mm 4 mps 748 mmHg 94%
01:00 +20°C° 0.3 mm 3 mps 748 mmHg 95%
02:00 +20°C° 0.1 mm 3 mps 748 mmHg 96%
03:00 +19°C° 0.1 mm 3 mps 748 mmHg 96%
04:00 +19°C° 0.1 mm 3 mps 748 mmHg 97%
05:00 +20°C° 0 mm 2 mps 748 mmHg 92%
06:00 +21°C° 0 mm 2 mps 749 mmHg 87%
07:00 +24°C° 0 mm 2 mps 749 mmHg 82%
08:00 +25°C° 0 mm 2 mps 749 mmHg 74%
09:00 +27°C° 0 mm 2 mps 749 mmHg 66%
10:00 +29°C° 0 mm 2 mps 749 mmHg 59%
11:00 +30°C° 0 mm 2 mps 749 mmHg 54%
12:00 +31°C° 0 mm 2 mps 749 mmHg 50%
13:00 +32°C° 0 mm 1 mps 748 mmHg 45%
14:00 +32°C° 0 mm 1 mps 748 mmHg 44%
15:00 +32°C° 0 mm 1 mps 748 mmHg 43%
16:00 +32°C° 0 mm 1 mps 748 mmHg 42%
17:00 +30°C° 0.3 mm 2 mps 748 mmHg 52%
18:00 +28°C° 0.3 mm 3 mps 748 mmHg 63%
19:00 +25°C° 0.3 mm 4 mps 747 mmHg 73%
20:00 +24°C° 0.5 mm 3 mps 747 mmHg 79%
21:00 +23°C° 0.5 mm 2 mps 747 mmHg 85%
22:00 +21°C° 0.5 mm 2 mps 747 mmHg 91%
23:00 +21°C° 1.9 mm 2 mps 747 mmHg 92%

28 July, Wednesday

Time Temperature Precipitation Wind Pressure Humidity
00:00 +20°C° 1.9 mm 2 mps 747 mmHg 94%
01:00 +20°C° 1.9 mm 3 mps 746 mmHg 96%
02:00 +20°C° 1.4 mm 2 mps 746 mmHg 96%
03:00 +21°C° 1.4 mm 1 mps 746 mmHg 96%
04:00 +21°C° 1.4 mm 1 mps 745 mmHg 95%
05:00 +22°C° 0.4 mm 1 mps 746 mmHg 93%
06:00 +22°C° 0.4 mm 1 mps 746 mmHg 90%
07:00 +23°C° 0.4 mm 1 mps 746 mmHg 88%
08:00 +24°C° 0.2 mm 1 mps 746 mmHg 86%
09:00 +24°C° 0.2 mm 2 mps 746 mmHg 84%
10:00 +24°C° 0.2 mm 2 mps 746 mmHg 83%
11:00 +25°C° 0.7 mm 3 mps 746 mmHg 81%
12:00 +25°C° 0.7 mm 4 mps 746 mmHg 80%
13:00 +25°C° 0.7 mm 5 mps 746 mmHg 79%
14:00 +25°C° 0.8 mm 5 mps 747 mmHg 80%
15:00 +23°C° 0.8 mm 5 mps 747 mmHg 81%
16:00 +23°C° 0.8 mm 5 mps 748 mmHg 83%
17:00 +22°C° 0.5 mm 4 mps 748 mmHg 84%
18:00 +21°C° 0.5 mm 4 mps 748 mmHg 86%
19:00 +20°C° 0.5 mm 3 mps 748 mmHg 88%
20:00 +19°C° 0.1 mm 3 mps 748 mmHg 90%
21:00 +19°C° 0.1 mm 3 mps 748 mmHg 91%
22:00 +18°C° 0.1 mm 3 mps 748 mmHg 93%
23:00 +18°C° 0 mm 3 mps 749 mmHg 93%
Show more

We Need Your Consent

Meteoprog and our Service Providers may store and access personal data such as cookies, device identifiers or other similar technologies on your device and process such data to personalise content and ads, as well as provide social media features and to analyse the traffic.

  • Store and/or access information on your device

    Cookies, device identifiers or other information can be stored or accessed on your device for the purposes indicated above.

  • Personalised ads and content, ad and content measurement, audience insights, and products development

    Ads and content can be personalised based on a profile. More data can be added to better personalise ads and content. Ad and content performance can be measured. Insights about the audience who saw the ads and content can be derived. Such data can be used to develop or improve user’s experience, systems and software.

By clicking ‘I Agree’ you will allow the use of indicated cookies, device identifiers, web beacons or other similar technologies. Your settings can be changed in the browser on your device.

For certain purposes, legitimate interests may be relied on, rather than consent. You can read more about this in our Privacy and Cookie Policy.